Location: Newark
(46.9000°N, 28.3500°E)
Time: 04:52:15
(UTC+00:00)

Vanguard 1 Rocket - Pass Details

Date: 27 August 2019
Orbit: 652 x 4225 km, 34.3° (Epoch: 15 September)

Event Time Altitude Azimuth Distance (km) Brightness Sun altitude
Rises 22:15:53 0° 214° (SW) 3,421 - -33.2°
Reaches altitude 10° 22:20:50 10° 174° (S) 2,129 - -33.1°
Maximum altitude 22:21:43 10° 163° (SSE) 2,063 - -33.1°
Drops below altitude 10° 22:22:34 10° 152° (SSE) 2,068 - -33.1°
Sets 22:26:57 0° 109° (ESE) 2,999 - -33.0°
